Wind_Speed
58 57 56 55 56 56 57 57 58 59 60 61 63 65 66 67 67 66 64 65 66 67 68 68 68 68 69 69 69 68 68 70 72 74 76 77 78 79 81 84 86 86 86 86 88 89 90 89 88 86 82 78 74 70 68 67 66 63 58 51 45 36 30 26 25 27 29 31 33 37 40 46 53 62 74 86 96 101 101 96 92 92 94 96 96 97 96 94
58 57 56 57 57 57 57 57 58 59 60 61 63 65 66 67 67 66 65 66 67 67 68 68 68 68 68 69 68 68 68 69 71 74 76 77 78 79 81 84 85 85 85 86 87 89 89 89 88 86 83 79 75 72 69 67 66 64 60 55 49 42 35 29 26 27 28 30 32 35 39 42 46 53 61 71 85 96 102 104 99 94 94 96 97 98 98 98
58 58 58 58 58 57 57 57 58 59 59 61 63 64 66 67 67 66 66 67 67 67 67 69 69 68 68 68 68 67 67 68 71 73 75 77 77 79 81 83 85 85 84 85 87 88 89 88 88 86 84 80 77 74 71 68 67 65 62 57 51 46 40 34 30 28 28 29 31 34 37 40 42 47 53 59 70 84 95 104 106 101 96 95 96 97 98 99
59 59 59 59 57 56 57 58 59 58 59 61 62 64 66 67 67 67 67 68 68 67 67 68 69 68 68 68 68 67 67 68 70 72 74 76 77 78 80 83 85 84 84 85 87 88 89 88 88 87 85 81 78 75 72 70 69 67 64 59 53 47 41 36 33 30 30 30 31 33 35 38 40 44 48 52 60 71 83 93 101 104 102 97 96 97 99 99
60 60 60 59 57 57 57 58 58 58 60 61 62 64 66 67 67 67 68 69 68 67 67 68 69 69 68 68 68 67 66 68 70 72 74 76 76 78 80 82 84 84 84 85 87 88 89 89 89 88 85 82 79 76 74 72 70 68 66 62 55 49 43 37 34 32 31 31 32 33 34 35 38 41 45 48 54 61 70 78 87 97 104 104 100 99 100 101
60 61 60 58 58 57 57 58 58 59 60 61 62 64 65 66 67 67 68 69 68 67 67 67 69 69 68 68 68 67 66 67 69 71 74 75 76 78 79 82 84 84 83 85 86 88 89 89 89 88 85 82 79 77 74 73 71 69 67 64 58 51 46 39 34 33 31 32 33 34 35 35 37 39 42 45 49 54 60 66 74 84 96 105 107 105 103 102
61 61 60 58 58 57 57 57 58 59 61 62 63 64 65 66 67 67 67 68 68 68 67 67 68 69 68 68 68 67 66 67 69 71 73 75 76 77 79 82 83 83 83 84 86 87 88 88 88 88 85 82 79 77 75 73 72 70 69 67 61 54 49 42 36 34 32 32 34 35 35 35 37 39 40 42 45 49 54 59 64 72 82 93 103 109 109 106
61 60 59 58 57 57 57 57 59 60 62 62 63 64 65 66 67 67 67 68 68 68 67 66 68 69 69 68 68 67 66 67 69 70 73 74 76 77 79 81 83 82 83 84 85 86 87 88 88 88 86 83 80 77 75 74 73 71 70 69 65 57 50 45 38 35 33 32 34 35 36 35 36 40 41 41 42 45 49 54 58 63 69 78 89 101 108 110
60 58 57 57 56 56 57 58 60 61 62 63 63 64 65 66 67 67 67 67 68 67 66 66 67 69 69 69 68 67 66 66 68 70 72 74 75 77 78 81 82 82 83 84 85 86 87 87 88 87 86 83 81 78 76 75 73 73 72 69 67 62 53 47 41 37 35 33 34 36 37 36 35 39 42 42 42 44 47 50 53 57 61 68 75 85 96 105
57 55 55 56 56 57 59 60 61 62 63 63 64 65 65 66 67 67 67 67 67 67 66 66 67 69 69 68 68 67 67 66 68 70 72 73 75 76 78 81 82 82 82 83 84 85 86 87 88 87 86 84 81 79 77 76 74 74 73 70 69 65 57 50 44 39 36 34 34 36 38 37 34 37 42 42 43 44 47 49 51 54 56 61 66 73 81 91
54 53 54 55 57 60 61 62 62 63 63 64 65 65 66 67 67 67 67 66 66 67 66 66 67 68 69 69 68 68 67 66 68 70 71 73 75 76 78 80 82 82 82 83 84 85 86 87 87 87 86 84 81 79 78 76 75 75 74 72 70 67 60 53 47 42 38 36 34 35 39 40 34 35 39 41 44 46 48 50 51 53 55 57 60 66 72 79
52 54 56 57 60 63 63 63 64 64 64 65 66 66 66 67 67 67 67 66 65 66 66 66 66 67 68 69 68 68 67 67 67 69 71 73 74 76 78 80 82 81 82 83 83 84 85 86 87 86 85 83 81 79 77 76 75 75 73 72 72 70 64 57 51 45 40 36 35 34 38 43 37 33 35 38 42 46 48 51 53 54 56 56 58 61 66 71
55 57 59 61 63 65 65 66 66 66 66 67 67 66 66 67 67 67 67 65 65 65 66 66 66 67 68 69 69 68 68 67 67 69 70 72 74 75 77 79 81 81 81 82 83 83 84 85 86 86 85 83 80 78 77 75 74 74 74 73 73 73 70 64 57 51 45 38 34 31 35 43 42 35 33 35 40 45 49 52 54 55 56 58 58 59 62 67
60 62 64 65 66 66 67 67 67 67 67 67 67 66 66 67 67 67 66 65 64 64 65 65 66 67 68 69 69 68 68 67 67 68 70 72 74 75 76 79 80 80 81 81 82 82 83 84 85 85 84 82 80 77 76 75 73 73 73 73 72 71 70 67 60 55 50 42 34 30 32 40 41 38 36 36 38 43 48 53 55 57 58 59 59 60 61 64
68 69 69 69 67 68 69 69 69 68 68 67 67 67 67 67 67 66 66 64 63 64 65 65 65 66 68 69 69 68 68 67 68 68 69 72 73 75 76 78 79 80 80 81 81 82 83 84 84 84 84 82 79 77 75 74 73 72 71 71 70 70 68 66 61 56 52 45 37 31 31 37 39 39 40 39 38 41 46 51 54 57 59 61 61 61 61 62
72 73 73 71 69 69 70 70 69 68 67 68 67 67 67 67 67 66 65 64 63 63 64 65 65 66 68 69 69 69 68 68 68 67 69 71 73 74 76 77 79 80 80 80 81 81 82 83 84 84 84 82 78 75 74 73 73 72 71 70 69 69 66 63 60 56 52 47 42 36 34 37 39 41 43 43 41 42 44 49 53 56 59 61 62 62 62 62
70 72 74 73 71 71 71 70 70 69 69 69 68 68 68 67 67 66 65 63 62 62 63 64 64 66 68 69 69 69 68 68 68 67 68 71 72 74 75 77 78 79 80 80 81 80 81 82 83 83 83 81 77 74 72 71 70 69 70 68 68 69 67 61 57 53 50 47 43 40 39 38 39 41 44 45 45 45 46 47 50 54 58 60 62 63 63 63
70 71 72 73 72 71 71 71 70 70 70 70 69 68 68 67 67 66 64 63 62 62 63 64 64 66 67 68 69 69 69 68 68 67 68 70 72 73 75 76 78 79 79 80 80 80 80 81 82 83 83 81 77 74 72 70 69 68 68 68 66 68 69 62 54 49 46 46 43 41 40 38 39 41 43 45 47 48 49 49 50 53 56 59 61 62 63 64
71 71 71 72 72 71 72 71 71 71 71 70 69 69 68 67 67 66 64 63 62 62 62 63 64 65 67 68 68 69 69 68 68 67 68 70 71 73 74 75 77 79 79 79 79 80 79 80 82 83 83 80 77 74 72 70 70 70 70 70 67 67 69 64 56 48 43 44 44 43 42 39 40 43 43 45 46 47 49 50 51 52 53 55 57 60 62 63
73 72 71 71 72 72 73 72 72 71 71 71 70 69 68 68 67 66 65 63 62 62 62 62 63 65 67 67 68 68 68 68 68 68 68 70 71 73 74 75 77 78 79 78 78 79 79 80 81 83 82 80 76 74 73 71 70 70 70 71 70 68 68 65 58 50 44 44 45 46 45 41 40 44 45 45 46 46 48 50 53 53 50 50 52 55 58 61
75 73 72 72 72 73 73 73 72 71 72 72 71 70 69 69 68 67 65 64 63 62 62 62 63 64 66 67 67 68 68 68 68 68 68 69 71 72 73 74 76 77 78 78 78 79 79 80 81 82 82 79 76 73 73 71 69 69 70 70 71 69 68 65 61 53 46 45 47 48 49 45 42 45 45 44 44 43 46 49 52 53 50 49 50 51 53 57
78 77 75 73 72 73 73 73 72 73 73 72 72 70 70 70 69 68 66 64 63 63 62 61 63 64 65 66 67 68 68 68 68 68 69 69 71 72 73 74 75 77 77 78 78 79 79 80 81 82 82 78 74 73 73 71 69 69 70 71 72 71 67 64 62 57 50 47 47 49 53 48 43 46 46 44 43 40 42 46 49 50 47 46 49 50 50 52
81 80 77 74 73 73 73 73 73 73 72 72 72 71 71 71 70 68 66 64 64 63 61 61 62 63 63 65 66 67 67 68 68 68 69 70 71 72 73 74 75 76 77 77 77 78 78 79 80 81 80 77 73 72 71 71 70 69 70 71 72 73 70 64 61 58 54 50 47 49 55 54 47 47 47 44 42 38 38 42 45 46 45 43 45 48 50 51
83 82 79 76 74 74 73 73 72 72 72 72 72 73 72 72 71 68 67 65 65 64 62 61 62 62 62 64 66 66 67 68 68 68 69 70 70 72 73 74 75 76 76 76 77 77 78 78 80 80 79 76 72 71 70 69 70 70 71 72 72 73 72 68 63 58 54 53 51 48 54 58 53 51 51 47 44 39 35 38 40 42 43 44 45 46 47 50
83 82 80 78 75 74 74 73 73 74 74 75 74 74 74 72 70 68 68 66 65 64 62 61 62 61 62 64 65 65 66 67 67 68 69 69 70 72 73 74 75 76 76 76 76 77 77 78 79 79 78 75 71 70 69 67 68 69 70 70 71 72 72 71 67 61 54 52 53 50 51 57 55 52 52 50 47 42 36 34 36 38 39 40 43 45 45 46
84 83 82 80 78 76 76 76 77 77 77 77 76 76 74 72 70 69 69 67 65 64 62 61 61 60 61 63 64 65 66 67 67 68 68 69 70 72 73 74 74 75 76 76 75 76 76 77 78 79 78 75 71 70 68 67 67 67 68 68 69 71 72 71 70 65 58 53 54 53 52 56 56 53 53 50 47 43 37 32 31 34 35 35 37 40 41 42
85 84 83 82 81 79 78 78 78 78 78 77 76 75 74 72 71 70 70 68 65 64 62 61 60 59 61 63 64 65 65 66 67 68 68 69 70 72 73 74 74 75 75 75 75 75 76 76 78 78 78 75 70 69 68 66 66 66 67 68 69 71 72 72 72 68 63 58 57 56 55 58 58 54 52 50 46 42 36 32 29 30 32 31 32 35 37 37
87 85 84 83 83 82 81 81 80 79 78 77 76 75 74 73 72 71 72 68 64 63 62 61 60 60 61 63 64 64 65 66 66 67 68 69 70 72 73 74 74 75 75 75 74 74 75 76 77 77 78 75 69 68 68 65 64 65 66 67 68 70 72 73 74 71 66 62 60 58 55 57 60 55 51 48 44 41 36 31 29 28 29 30 29 30 33 34
88 86 85 84 84 83 83 83 82 81 80 78 77 76 75 74 73 72 72 68 63 62 62 61 60 60 61 62 63 64 64 65 66 66 67 68 70 72 73 73 74 75 75 75 74 73 73 74 76 77 77 75 69 67 68 65 63 63 64 66 69 70 73 75 75 72 67 63 61 59 55 55 58 56 51 47 44 41 38 33 30 27 27 28 28 28 30 31
90 88 86 86 85 84 84 84 84 83 81 80 78 76 75 73 72 72 71 66 62 61 61 61 61 60 61 62 63 63 64 65 65 66 67 69 71 72 72 73 74 75 75 75 74 73 72 73 75 76 76 75 69 66 68 65 62 61 62 64 67 70 73 76 76 72 66 62 60 59 57 54 55 55 51 47 43 40 38 35 32 29 25 24 26 27 28 28
90 89 88 87 86 86 85 85 84 83 82 81 78 76 75 72 72 72 68 64 62 61 62 62 61 60 61 62 63 63 64 65 65 65 67 69 70 71 71 72 74 75 75 75 74 72 71 72 74 75 75 75 70 67 68 66 62 62 62 63 65 67 70 73 74 72 67 63 61 59 59 57 55 54 51 48 44 39 36 34 33 32 28 24 23 25 26 26
91 90 90 89 89 87 86 85 84 84 83 81 79 77 75 74 73 70 65 65 64 62 62 62 61 60 61 62 63 63 64 64 64 65 67 69 70 70 70 72 73 73 74 74 74 73 71 71 73 75 75 74 71 69 69 69 64 62 63 63 63 64 65 67 71 72 70 68 65 62 61 60 57 54 52 49 45 41 37 34 33 31 31 28 25 22 23 25
92 91 91 91 90 89 87 86 85 84 82 81 79 77 76 75 72 68 66 67 65 62 62 62 61 61 62 62 63 64 64 64 64 66 68 69 69 69 70 71 72 72 73 73 73 72 71 71 73 75 75 74 71 69 68 69 65 62 62 63 63 63 63 66 69 71 71 70 70 68 64 62 60 58 56 53 50 45 40 36 33 30 29 28 27 24 22 22
92 92 92 91 91 90 88 86 85 83 82 81 79 77 76 74 69 66 67 67 65 63 62 62 61 62 62 63 63 64 64 64 65 66 68 69 69 70 70 70 71 72 72 72 71 71 70 70 72 74 74 73 71 68 67 68 66 62 61 63 64 65 67 69 70 71 70 69 70 72 70 66 64 63 62 59 55 50 44 38 35 32 29 26 25 25 24 22
92 92 92 91 91 89 88 86 84 83 81 79 78 77 75 71 67 67 68 67 65 63 63 63 63 63 63 63 64 64 65 65 66 67 67 69 70 70 69 69 70 71 71 71 70 70 70 70 70 72 73 72 70 69 67 67 66 62 61 63 65 66 68 70 72 72 70 67 67 69 72 72 70 68 67 63 57 52 48 43 40 36 33 29 25 24 23 22
90 91 91 90 90 89 87 86 84 82 80 79 78 75 72 69 68 67 67 66 64 64 65 65 64 63 63 64 64 65 66 66 66 67 68 69 70 70 69 68 69 70 70 71 69 68 69 69 69 71 73 72 70 69 67 66 66 63 61 63 65 66 67 68 71 72 70 68 66 65 68 71 72 71 69 64 58 54 51 47 42 38 34 31 27 24 23 22
88 89 89 89 89 88 86 85 84 82 80 79 76 73 71 70 68 66 66 66 67 67 68 67 65 65 64 65 66 67 67 67 67 67 68 69 71 71 69 68 69 70 70 70 68 67 68 68 69 69 71 72 70 68 67 65 65 64 62 62 64 66 67 66 68 70 70 69 68 66 65 67 69 71 70 66 61 58 53 45 40 37 34 31 28 24 22 21
91 90 89 90 89 88 87 86 84 82 81 78 75 72 72 71 70 69 70 70 70 70 69 68 67 66 66 67 67 68 68 67 67 67 68 71 72 71 69 68 69 70 69 69 68 67 67 67 68 69 70 72 70 67 66 64 64 64 62 62 64 65 67 68 68 70 69 68 68 67 66 65 67 68 68 66 61 58 52 43 37 35 33 31 28 24 21 20
95 93 92 93 92 90 89 88 86 84 82 78 74 73 73 73 74 75 74 73 72 71 71 70 70 68 68 69 69 70 69 67 68 69 70 71 72 70 68 68 69 69 69 68 67 66 66 66 67 68 69 71 69 66 65 64 63 63 62 62 64 65 68 70 71 71 70 68 67 67 67 66 66 66 67 65 61 57 51 43 40 38 35 31 27 24 20 19
97 95 94 95 94 92 91 90 87 84 81 77 74 74 75 76 78 78 76 75 74 74 73 73 72 71 71 72 72 70 69 69 70 71 71 72 71 69 68 68 69 69 68 67 66 65 65 66 67 67 68 69 69 66 64 63 61 62 61 60 62 65 67 71 72 72 71 69 67 66 66 67 67 68 68 66 61 57 52 48 46 45 40 34 28 24 20 18
101 99 97 97 95 94 93 91 86 82 79 76 75 75 77 78 79 79 79 78 76 76 75 74 74 74 74 74 72 72 71 71 72 72 71 71 70 68 67 68 68 68 67 66 65 64 64 65 66 67 67 68 68 65 63 62 61 60 60 59 61 64 66 70 72 72 71 70 68 67 66 67 68 69 70 68 63 58 56 55 54 53 48 40 32 26 20 17
107 104 102 102 101 99 97 94 89 84 81 79 77 78 79 80 81 82 82 82 80 78 77 76 76 76 75 74 73 73 73 73 72 71 70 70 69 68 68 68 68 67 66 65 64 63 62 64 65 66 66 67 68 65 62 61 60 59 60 58 60 63 65 68 70 71 71 71 69 68 67 67 67 69 71 69 65 61 60 59 59 58 54 47 38 29 22 17
113 111 110 109 108 106 103 98 93 89 85 83 82 83 84 84 85 86 85 84 82 79 77 76 76 75 75 74 74 74 74 72 71 70 70 70 70 69 69 69 68 67 66 65 63 62 62 62 63 65 66 66 66 64 62 61 59 58 60 59 58 61 63 66 69 70 70 71 70 69 67 67 67 69 71 70 67 64 62 61 61 60 56 51 43 35 26 20
120 118 117 116 114 112 108 102 97 94 91 89 89 89 88 88 88 87 86 85 82 79 77 77 76 76 75 75 75 75 73 71 69 69 71 71 70 70 70 69 67 67 66 64 62 61 61 62 61 62 65 66 66 64 62 60 58 57 58 58 57 59 61 64 67 68 69 69 69 69 68 67 67 68 70 71 69 65 63 61 61 59 57 53 47 39 31 23
127 125 123 121 120 117 112 106 102 100 97 95 93 92 92 91 89 87 86 85 84 82 80 79 78 77 77 77 76 74 73 70 69 71 72 72 71 72 71 68 67 67 66 63 61 61 61 61 60 60 62 64 64 64 62 60 58 56 57 57 56 57 59 61 64 66 67 68 68 68 67 66 66 67 69 70 68 65 63 61 59 58 57 54 48 41 34 26
132 129 127 125 123 121 116 111 108 105 102 99 97 96 94 92 89 88 88 88 88 87 85 82 80 79 78 77 76 74 73 71 71 73 73 73 73 73 70 67 67 68 65 62 61 61 60 60 59 59 60 61 62 61 61 59 57 55 55 56 54 54 57 59 61 64 65 66 67 67 65 64 63 64 65 66 65 63 61 59 57 56 56 55 50 44 36 28
135 133 130 128 126 124 120 115 111 108 106 104 102 99 97 94 93 93 93 92 91 90 86 83 81 79 78 77 77 75 73 73 74 74 74 74 73 72 70 68 68 67 63 61 61 60 59 59 58 57 59 60 60 59 58 57 56 54 54 55 53 52 54 57 59 61 63 64 65 65 65 63 61 60 61 62 62 61 59 57 55 54 55 55 52 46 38 30
137 133 131 130 129 127 123 118 115 113 111 110 108 105 102 100 98 96 94 93 93 91 88 84 80 79 79 80 79 76 74 76 76 75 75 74 74 72 70 69 68 65 61 60 60 58 58 57 56 56 58 59 57 57 57 56 54 53 54 54 52 51 52 54 57 59 61 63 64 64 64 62 60 59 58 59 60 59 57 55 54 53 54 54 52 48 42 34
137 133 130 131 131 129 127 123 121 120 117 114 112 108 104 101 99 97 96 96 96 94 91 85 81 81 83 83 82 79 78 79 77 76 77 75 74 72 70 69 67 64 60 60 59 57 56 55 54 54 57 58 55 54 55 55 53 52 52 53 51 50 50 51 54 56 59 61 63 64 63 62 60 58 56 56 57 57 56 54 53 52 53 53 50 47 43 37
135 132 129 128 127 125 124 123 124 122 120 118 114 107 103 101 100 99 97 97 96 94 92 87 84 87 88 86 84 81 80 80 79 79 78 75 73 72 70 68 66 61 60 59 57 56 54 53 53 53 55 57 54 52 53 54 53 51 51 52 50 49 48 49 51 54 56 58 60 62 63 62 60 57 55 53 53 54 55 53 51 51 51 50 47 45 42 37
130 128 127 126 125 123 122 121 121 121 119 116 109 103 101 100 99 97 96 96 96 95 93 91 91 93 91 87 84 83 83 84 81 80 77 74 72 71 68 66 63 60 59 58 57 56 54 51 51 51 53 56 54 51 50 52 53 50 50 51 49 47 47 47 48 50 53 55 57 59 62 62 60 57 54 51 50 51 52 51 50 48 48 46 43 42 40 35
129 126 125 124 122 121 121 119 119 119 115 107 99 95 95 94 93 95 95 95 95 94 93 93 93 92 90 87 85 86 87 86 81 79 76 73 71 69 66 65 63 59 58 58 57 55 52 50 50 50 51 53 54 51 48 50 52 50 48 50 49 46 46 46 46 47 50 52 54 56 58 61 60 58 55 50 47 47 47 48 47 45 45 43 40 39 38 34
Wind_Direction
317 318 318 318 317 318 321 324 327 330 332 334 337 338 338 339 340 340 342 345 346 346 346 346 345 344 344 344 344 345 346 347 348 349 350 351 351 350 350 351 352 352 353 353 354 354 355 354 355 355 355 356 357 356 354 351 349 348 347 345 340 331 318 304 290 278 270 264 260 255 251 245 241 238 236 234 233 232 232 232 232 232 234 235 235 234 233 232
316 317 317 316 316 316 319 322 325 328 331 333 335 336 337 338 339 339 341 343 344 345 346 346 345 343 343 343 343 344 346 346 347 348 349 350 350 349 350 350 351 351 352 353 353 354 354 354 354 354 354 355 356 356 354 352 349 347 346 345 341 334 324 312 298 285 274 266 261 257 254 251 246 242 239 237 236 234 233 233 233 233 233 234 236 237 236 234
314 315 315 315 314 315 318 321 324 327 329 331 333 335 336 338 338 338 339 341 342 344 345 345 345 343 342 342 342 343 345 346 346 347 348 349 349 349 349 350 350 351 351 352 352 353 353 353 353 354 354 354 355 354 353 352 349 347 345 345 342 336 327 317 305 293 283 273 264 259 255 253 251 247 243 240 238 236 235 234 233 234 235 234 235 236 237 237
313 313 314 314 313 314 317 320 323 325 328 330 332 333 335 337 337 337 338 339 340 342 344 345 344 343 342 341 342 342 344 345 346 346 348 348 348 348 348 349 350 350 351 351 352 352 352 353 353 353 353 353 354 353 353 351 350 347 345 344 343 338 330 319 309 299 291 282 272 264 258 254 252 251 247 244 242 239 237 236 235 236 236 236 235 235 236 237
311 312 313 313 312 312 316 319 321 324 326 328 330 331 333 335 336 336 337 338 339 340 343 344 344 343 341 340 341 341 342 344 345 346 347 348 347 347 347 348 349 349 350 350 351 351 352 352 352 353 353 353 353 353 352 351 349 347 344 343 343 340 333 322 312 302 294 287 280 273 265 259 255 252 250 247 246 244 241 239 238 237 237 237 236 235 235 235
309 310 311 311 309 311 315 318 320 322 325 327 328 330 331 333 335 335 336 337 337 339 341 343 343 342 341 340 340 340 341 343 344 345 347 347 346 346 347 347 348 349 349 350 350 351 352 352 352 352 352 352 352 352 351 350 348 346 344 343 343 342 336 327 316 306 298 290 284 278 272 267 262 255 251 249 249 248 246 242 240 239 237 237 237 236 235 234
308 309 309 308 307 310 314 316 318 321 323 325 327 328 329 331 334 335 335 336 336 337 339 342 343 342 340 339 339 339 340 342 343 344 346 347 346 346 346 347 348 349 349 349 350 350 351 351 351 351 351 351 351 351 350 349 348 346 345 343 343 343 339 331 321 310 301 293 287 282 277 271 267 263 256 252 251 251 250 246 243 241 240 239 238 238 237 236
307 307 306 305 306 309 313 315 317 319 321 323 325 326 327 330 332 334 334 335 335 336 338 340 341 341 340 339 338 338 339 341 342 343 345 346 345 345 345 346 347 348 348 349 349 350 351 350 351 351 351 350 350 350 349 348 347 346 345 343 343 343 341 334 325 315 306 297 290 285 280 274 270 268 263 258 255 254 254 251 247 244 242 242 240 239 239 238
305 305 303 303 306 309 312 314 316 318 320 321 323 325 326 328 330 332 333 334 334 335 336 339 340 340 339 338 337 337 338 339 341 342 344 345 345 344 345 346 347 347 348 348 349 350 350 350 350 350 350 350 349 348 348 347 346 346 345 343 343 343 342 337 329 319 311 302 293 288 283 278 272 269 268 264 260 258 257 255 252 248 244 243 243 241 240 239
303 301 300 303 306 308 310 312 315 316 318 319 321 323 324 326 328 331 332 333 333 334 335 337 339 339 339 337 336 336 336 338 339 341 343 344 344 344 344 345 346 347 347 347 348 349 349 349 349 349 349 349 348 347 347 346 346 345 345 343 343 343 342 339 332 324 316 308 298 291 286 282 276 270 268 267 264 261 260 258 256 254 249 245 243 243 243 241
299 298 299 303 305 307 309 311 313 315 316 318 319 321 322 324 326 329 331 331 332 333 334 336 337 338 337 336 335 335 335 336 338 340 341 343 343 343 344 345 346 346 347 347 347 348 349 349 349 349 349 348 347 346 345 345 344 344 344 343 343 343 342 340 335 328 321 313 304 295 288 285 280 271 268 268 266 264 261 260 258 256 255 251 245 243 243 243
295 297 299 302 304 306 308 310 312 313 314 316 317 318 320 322 324 327 329 330 330 332 333 334 336 336 336 336 335 334 335 335 336 338 340 341 342 343 343 344 345 346 346 347 347 347 348 348 348 349 348 348 347 345 344 343 343 343 343 343 342 342 343 342 337 331 326 317 308 299 290 287 285 277 270 267 265 265 263 261 258 255 254 254 250 246 243 243
295 297 299 301 304 305 307 308 310 311 313 314 315 316 318 320 323 325 327 328 329 331 331 333 334 335 335 335 334 333 334 334 335 337 339 340 341 342 342 343 344 345 346 346 346 347 348 348 348 348 348 347 346 344 343 342 342 342 342 343 342 342 342 343 340 335 330 324 313 302 290 287 289 285 276 267 262 261 261 261 259 256 253 252 251 249 246 243
293 294 296 300 302 303 305 307 308 309 311 312 313 314 317 319 321 323 325 327 328 329 330 331 333 334 334 334 333 332 332 333 334 335 337 339 340 341 342 342 344 344 345 345 346 346 347 348 347 347 347 346 344 343 341 341 341 342 342 343 343 342 342 342 341 335 330 326 318 306 293 289 291 290 283 273 264 259 258 258 258 257 255 252 250 249 248 246
290 291 294 297 300 301 303 305 306 308 309 310 311 313 315 317 319 321 324 325 327 328 329 330 331 332 333 332 332 331 331 332 332 334 336 337 339 340 341 342 343 344 344 344 345 345 346 347 347 347 346 345 343 341 340 340 340 341 342 342 343 342 341 341 340 334 329 325 320 312 300 295 295 295 289 280 272 265 260 259 258 257 256 254 252 250 249 248
288 289 292 294 297 299 301 303 304 305 307 308 309 310 313 315 317 320 322 324 326 327 328 329 330 331 332 331 331 330 330 331 331 333 334 336 338 339 339 341 342 343 343 343 344 345 346 347 347 346 345 344 342 341 340 339 340 341 341 342 342 342 342 341 338 333 328 324 321 316 307 303 302 300 294 289 283 275 267 263 260 258 256 255 252 250 249 248
289 289 290 292 294 297 299 300 302 303 305 306 307 308 311 313 315 318 321 323 324 326 327 328 329 330 331 330 330 329 329 330 330 331 333 335 337 338 338 340 341 342 343 343 343 344 345 346 346 345 344 343 341 340 339 339 340 341 341 342 341 341 342 342 339 333 327 323 320 316 311 309 305 300 296 292 289 283 277 271 266 262 259 257 254 251 249 248
289 290 290 291 292 294 296 298 300 301 303 304 305 307 309 311 314 316 319 321 323 324 325 326 328 329 330 329 328 328 328 329 329 330 332 334 335 336 337 339 340 341 342 342 342 343 345 346 345 344 343 343 341 339 338 338 339 340 340 341 342 340 341 343 341 334 326 320 318 314 311 309 305 299 294 291 288 285 282 277 272 267 263 260 257 254 251 248
290 291 291 291 291 292 294 295 297 299 301 302 303 305 308 310 312 314 317 320 321 323 324 325 327 328 328 328 327 327 327 328 328 329 331 333 334 335 336 338 340 341 341 341 342 342 344 345 345 344 343 342 340 338 338 338 339 339 340 340 341 341 340 342 341 336 328 320 318 314 310 310 307 302 297 293 290 287 285 281 277 272 267 264 260 258 254 251
290 290 290 290 290 290 292 293 296 297 299 300 302 304 306 308 310 313 316 318 319 321 322 324 325 326 327 327 327 326 326 326 327 327 329 331 333 334 335 337 339 340 340 340 341 341 343 344 344 344 343 342 340 338 337 338 339 340 340 340 341 341 340 341 342 338 331 323 320 317 312 312 312 306 301 298 296 294 290 286 281 278 275 271 265 260 256 253
289 290 290 289 289 289 291 292 294 296 297 299 300 303 305 306 309 311 314 316 318 319 321 322 324 325 325 325 326 325 325 325 325 326 328 330 332 333 334 336 338 339 339 340 340 341 341 343 344 343 343 342 340 337 336 337 339 340 340 340 340 341 342 342 342 340 334 327 324 322 316 315 317 311 306 303 300 297 293 287 283 282 280 277 272 265 258 253
289 289 290 289 289 289 290 291 293 294 295 297 299 301 303 305 308 310 312 315 317 317 318 320 322 322 322 324 325 324 324 324 324 325 326 329 330 331 333 335 336 338 339 339 339 340 340 342 343 343 343 342 340 337 336 337 339 341 341 340 339 340 343 345 344 340 336 331 328 327 321 318 320 316 310 308 304 300 296 290 286 284 281 276 272 270 265 257
287 288 289 289 289 289 289 289 291 292 293 295 298 300 302 304 306 308 311 314 315 315 316 318 320 320 320 322 323 323 322 322 323 323 325 327 329 330 332 333 335 337 338 338 338 339 340 341 343 343 342 342 339 337 336 337 339 341 341 340 339 340 343 346 346 342 338 334 331 331 327 322 322 321 316 314 310 306 300 293 289 288 284 278 271 268 267 263
285 287 288 288 288 288 287 288 290 291 293 295 297 299 301 303 305 307 309 312 314 313 313 317 318 317 318 321 322 322 321 321 321 322 324 326 327 329 330 332 334 336 337 338 338 338 339 340 342 343 342 341 339 337 337 339 340 341 341 341 341 341 344 345 347 345 341 337 334 335 335 329 327 328 323 319 315 312 306 296 290 287 284 280 274 269 266 264
283 284 285 286 286 286 286 288 289 290 293 294 296 298 300 302 303 305 308 311 312 309 310 314 316 315 316 319 321 320 320 320 320 321 323 325 326 328 329 331 333 334 336 337 337 337 338 340 341 342 343 341 339 337 337 339 341 342 343 343 343 344 345 345 346 347 343 339 336 337 340 334 330 331 328 324 320 317 312 302 292 287 282 277 275 272 268 265
281 282 283 283 284 284 285 286 287 289 291 293 295 296 299 300 302 304 307 310 310 306 307 313 313 312 314 317 318 318 318 318 319 320 322 323 325 326 328 329 331 333 335 336 337 337 337 339 340 342 342 341 339 337 337 338 341 343 344 346 346 345 345 345 347 347 344 342 341 340 342 339 335 335 332 328 324 319 315 307 295 288 283 275 272 272 271 268
279 280 280 282 283 284 284 285 287 288 290 292 293 295 297 299 301 303 305 309 308 302 305 310 311 310 312 315 316 317 317 317 318 319 321 322 324 325 327 328 330 332 333 335 336 336 336 338 339 341 342 341 339 337 336 338 341 344 346 349 349 347 347 347 347 348 347 346 345 344 345 342 339 338 335 331 327 322 317 311 300 292 286 278 271 271 271 269
277 278 279 280 281 282 283 284 287 288 289 291 292 294 296 297 300 301 304 308 304 299 303 308 308 309 311 313 314 315 315 316 317 318 320 321 323 324 325 326 328 330 332 334 335 335 335 337 338 340 341 341 339 337 337 338 342 347 349 351 351 350 350 349 348 350 350 349 347 346 347 345 342 340 338 334 330 326 322 316 308 301 294 285 275 270 270 268
275 276 277 278 279 280 281 283 285 287 288 289 290 292 294 296 298 300 304 305 298 297 302 305 306 309 309 311 313 313 314 315 316 317 318 320 322 323 324 325 327 329 331 332 333 334 334 335 338 339 340 341 339 338 338 339 344 350 353 353 354 353 353 352 350 351 351 349 348 347 346 347 344 341 341 339 336 334 330 323 314 308 301 294 286 276 270 267
273 274 275 276 277 278 279 282 284 285 286 288 289 291 293 295 296 299 303 300 294 297 300 302 305 307 307 309 311 311 312 313 314 315 317 319 320 321 322 324 325 327 329 331 332 333 334 334 336 338 339 341 339 338 339 341 345 352 356 357 357 356 356 356 352 351 351 348 348 348 347 347 346 344 343 343 341 340 336 330 322 314 307 299 293 286 276 267
272 273 274 275 275 276 277 280 282 283 284 286 288 289 292 293 296 301 301 293 291 296 298 300 304 305 306 308 308 309 311 312 312 313 315 318 319 320 321 322 324 326 328 329 330 331 333 334 335 336 339 340 339 337 340 342 346 353 357 359 0 359 359 358 353 350 350 349 348 350 351 349 348 347 346 346 344 343 340 336 329 322 314 306 296 289 281 272
271 272 273 273 274 275 276 277 279 280 282 284 285 288 290 292 297 300 294 289 292 295 296 300 303 303 304 305 306 307 309 310 311 312 314 316 318 319 319 321 322 324 326 328 329 330 331 333 333 335 338 340 340 338 339 343 347 353 357 358 1 1 358 358 355 352 351 351 351 352 354 352 350 349 349 350 348 346 344 341 336 329 320 313 305 294 283 277
270 270 271 272 273 274 275 275 277 278 280 281 284 286 288 292 296 294 289 288 292 293 295 298 300 301 303 303 304 306 307 308 309 310 313 315 316 317 318 319 320 322 324 327 328 328 330 332 333 334 337 339 340 338 339 342 346 352 357 359 0 360 357 357 357 355 353 354 354 354 355 355 354 353 352 352 352 351 348 344 338 331 324 316 310 303 292 283
268 269 270 271 271 272 273 274 275 276 278 280 282 284 287 291 293 289 287 289 291 292 294 296 298 300 300 301 303 304 305 306 307 309 311 313 314 315 316 317 318 320 323 325 326 327 328 331 331 333 336 338 339 338 338 340 345 352 358 0 1 2 2 360 358 357 355 356 356 355 356 357 357 357 356 355 354 353 350 346 341 335 328 322 313 306 300 292
266 267 268 269 270 271 271 272 273 275 277 278 280 283 287 289 288 286 287 288 289 290 292 294 297 298 298 300 302 302 303 304 305 307 309 311 312 313 315 315 316 318 321 324 325 325 326 329 330 331 334 337 338 337 337 338 343 351 358 2 3 5 6 4 1 360 358 357 357 358 357 359 360 360 358 356 355 354 352 348 344 338 333 328 321 312 304 298
264 265 266 267 268 268 270 271 272 274 275 277 279 283 286 286 286 286 286 286 287 289 291 293 295 296 297 299 300 300 302 302 304 305 307 308 310 311 312 313 314 316 320 322 324 324 325 327 329 330 332 335 336 336 336 338 342 349 359 4 5 5 7 7 4 2 0 359 358 358 360 0 1 1 359 356 356 357 356 351 345 339 335 332 327 320 311 302
263 264 265 265 266 268 269 270 271 273 274 276 279 282 284 284 285 284 282 284 286 288 290 292 293 294 296 298 298 299 300 300 302 303 304 306 307 309 310 310 312 315 318 321 322 323 324 326 328 329 331 334 335 336 336 338 341 348 358 4 6 6 6 7 6 4 3 2 0 359 0 2 2 2 360 358 357 359 357 353 348 343 339 336 331 325 317 308
264 264 265 266 267 268 268 269 271 272 273 276 279 281 282 282 282 281 281 284 285 287 289 290 291 293 295 296 297 297 297 298 300 300 302 303 305 307 308 308 310 313 317 319 321 322 323 324 326 328 330 332 334 335 336 338 340 346 356 4 7 7 7 7 8 6 3 4 3 0 0 2 3 3 1 359 358 359 358 355 354 352 347 342 336 330 323 314
264 265 266 267 267 268 268 269 270 271 274 277 279 280 280 280 280 280 281 283 284 286 287 288 290 292 294 294 295 295 296 296 297 298 300 301 303 305 306 307 310 312 315 318 319 321 322 323 325 327 329 331 333 335 336 338 340 344 353 3 7 8 8 8 9 8 5 4 5 3 1 2 3 4 3 1 359 359 360 1 2 2 357 349 342 337 330 322
263 264 265 266 267 268 269 269 270 272 275 277 277 278 279 279 279 280 281 282 283 284 285 287 289 290 291 292 293 293 293 293 294 296 298 299 301 303 305 306 308 311 314 316 318 319 321 322 323 325 327 330 332 334 336 338 340 344 350 0 7 9 9 9 9 9 7 5 5 4 3 3 4 5 5 3 0 0 4 8 9 8 4 358 350 345 339 331
263 263 264 265 266 267 267 268 270 272 274 275 277 278 278 277 277 279 280 281 282 283 284 285 287 288 289 290 290 290 290 291 293 294 295 297 299 301 303 305 307 310 313 315 316 318 319 320 322 323 325 328 331 332 335 337 340 344 348 357 6 9 10 10 10 10 8 6 6 6 4 4 6 6 5 3 2 3 7 10 12 11 9 4 358 353 347 341
263 263 263 264 264 264 265 266 268 270 273 275 276 275 274 274 275 277 278 279 280 281 282 283 284 285 286 286 286 287 288 290 291 291 293 295 297 298 301 304 306 309 312 313 315 317 318 319 320 322 323 327 329 331 334 337 340 343 347 354 4 9 9 11 12 12 10 8 8 7 6 6 7 7 6 4 3 6 9 10 11 10 9 6 4 0 357 354
262 262 262 263 263 263 264 265 267 270 272 273 272 271 272 273 274 275 276 277 278 278 279 280 281 282 283 283 285 286 287 287 288 289 291 293 295 296 299 303 304 307 310 312 313 315 316 318 319 320 321 325 328 330 333 337 339 344 347 351 1 8 9 10 12 13 12 11 9 9 8 7 8 9 7 5 5 6 8 9 9 8 7 7 7 5 4 5
261 261 261 262 263 263 264 266 267 268 269 269 269 270 271 272 272 273 274 274 274 275 276 278 279 279 280 282 283 284 284 284 285 287 289 291 292 294 299 302 303 305 308 310 312 313 315 316 317 318 320 324 327 329 333 336 339 344 348 350 357 6 10 10 12 13 14 13 11 10 9 8 9 10 9 7 6 6 7 8 8 7 6 6 7 7 7 8
261 261 261 261 262 263 264 265 266 267 267 267 268 268 269 269 270 270 270 270 272 274 275 276 277 278 279 281 281 281 281 281 283 285 287 288 290 294 298 300 301 303 306 308 309 311 313 314 315 316 317 322 326 329 332 335 339 344 348 350 354 3 9 11 12 13 14 14 13 13 12 10 9 10 10 8 6 6 6 7 7 7 6 6 7 8 10 12
260 260 260 261 262 263 263 264 264 265 266 266 266 266 266 266 266 267 267 269 272 273 274 274 275 277 278 279 278 277 278 280 282 284 285 286 290 293 296 298 300 302 305 306 307 309 311 312 313 314 315 319 324 327 330 334 337 342 347 349 352 0 7 10 12 13 15 15 14 14 14 12 11 11 11 9 7 6 6 6 6 7 7 7 7 9 13 16
259 259 260 260 261 262 262 262 263 263 264 264 263 263 263 263 264 266 268 270 271 272 272 273 275 276 276 275 275 275 277 279 280 282 283 286 289 291 294 297 299 300 303 303 304 308 310 310 311 312 313 317 322 326 329 333 335 340 345 349 352 357 5 10 11 13 15 16 16 15 15 14 13 13 13 11 8 7 7 6 6 8 8 8 8 9 13 21
259 259 259 259 260 260 261 261 262 262 261 261 261 261 262 264 266 268 269 269 269 270 271 272 272 273 272 272 272 274 276 278 280 281 282 284 287 289 293 296 297 298 300 300 303 306 308 308 309 309 311 315 320 324 328 331 334 338 344 348 351 355 2 8 11 13 15 17 17 17 16 15 14 14 14 12 9 8 8 7 7 8 9 8 8 8 12 22
259 259 259 260 260 260 260 260 260 260 260 260 261 262 263 264 266 266 267 267 268 268 269 269 269 270 269 269 271 273 275 277 278 278 280 283 286 289 292 293 294 297 297 298 301 304 306 306 306 307 309 313 318 323 326 330 333 337 342 347 351 353 359 5 9 12 15 17 17 18 18 17 16 15 15 13 11 8 8 9 9 10 10 9 8 8 10 18
259 259 260 260 260 260 260 260 260 259 259 259 260 261 262 263 264 265 265 265 266 266 266 267 267 267 267 268 271 273 274 274 275 276 279 282 285 288 290 291 293 295 294 296 299 301 303 304 304 305 308 311 316 321 324 328 331 335 340 345 349 352 356 3 8 10 14 17 18 18 18 18 17 17 16 15 12 9 8 9 10 11 11 9 8 9 11 17
257 258 259 260 260 261 261 261 261 261 260 260 261 261 262 262 263 263 263 263 264 265 266 266 265 265 267 269 271 272 271 272 274 276 279 282 284 286 288 290 291 292 292 295 297 298 300 302 301 303 306 309 314 318 322 326 329 332 338 343 347 351 355 360 5 9 12 15 18 18 18 19 19 18 17 16 14 11 9 8 10 12 12 11 9 9 12 20
255 257 258 260 260 261 261 261 262 262 263 263 263 262 261 261 260 261 262 263 265 265 265 264 264 265 267 269 269 269 270 272 274 277 279 281 283 285 287 288 289 290 291 294 295 295 297 299 298 300 304 307 311 315 320 324 327 331 336 340 345 349 353 357 2 7 9 13 18 19 18 19 20 19 18 17 16 14 11 9 9 11 12 12 10 9 11 19
Height
10904 10902 10901 10899 10897 10895 10893 10891 10889 10888 10885 10883 10880 10877 10874 10871 10868 10865 10862 10859 10856 10852 10849 10846 10842 10838 10834 10830 10826 10822 10819 10815 10811 10807 10802 10798 10794 10790 10785 10780 10775 10770 10765 10760 10755 10750 10745 10740 10734 10729 10725 10721 10718 10714 10710 10705 10701 10698 10695 10692 10690 10688 10686 10684 10682 10679 10678 10677 10677 10677 10677 10678 10680 10682 10683 10686 10689 10691 10693 10695 10696 10698 10700 10703 10706 10710 10713 10719
10901 10900 10898 10897 10895 10893 10891 10889 10887 10885 10883 10881 10878 10875 10872 10869 10867 10864 10861 10859 10855 10851 10848 10844 10841 10837 10833 10829 10825 10821 10818 10814 10810 10806 10801 10797 10793 10789 10784 10779 10774 10769 10764 10759 10754 10749 10744 10739 10734 10729 10724 10720 10716 10712 10709 10705 10701 10696 10693 10690 10687 10684 10682 10680 10678 10675 10674 10673 10672 10671 10671 10672 10673 10674 10676 10678 10680 10683 10684 10685 10687 10690 10692 10694 10698 10702 10706 10711
10898 10897 10896 10895 10893 10891 10889 10886 10885 10883 10881 10878 10876 10873 10870 10868 10865 10863 10860 10857 10854 10850 10846 10843 10840 10836 10832 10828 10825 10821 10817 10813 10809 10805 10800 10796 10792 10787 10783 10778 10773 10768 10763 10758 10753 10748 10744 10738 10733 10728 10723 10718 10714 10710 10707 10703 10700 10696 10692 10688 10684 10680 10677 10675 10673 10671 10669 10668 10667 10666 10666 10666 10667 10668 10669 10671 10671 10672 10673 10674 10680 10684 10686 10690 10693 10695 10698 10702
10895 10894 10893 10892 10891 10889 10886 10884 10882 10880 10878 10876 10873 10871 10868 10866 10863 10861 10858 10856 10853 10849 10845 10841 10838 10834 10831 10827 10824 10820 10816 10813 10809 10805 10800 10795 10790 10786 10781 10776 10772 10767 10762 10757 10752 10747 10742 10737 10731 10726 10721 10716 10712 10708 10704 10701 10697 10694 10690 10686 10682 10678 10674 10671 10669 10667 10665 10663 10662 10661 10661 10660 10661 10661 10662 10664 10663 10662 10664 10668 10673 10678 10679 10683 10687 10688 10690 10692
10893 10891 10890 10889 10888 10886 10884 10882 10880 10878 10876 10874 10871 10869 10867 10864 10861 10859 10857 10854 10851 10848 10844 10840 10837 10833 10830 10826 10823 10819 10815 10811 10807 10803 10799 10794 10789 10785 10780 10775 10770 10765 10760 10755 10750 10745 10740 10734 10729 10724 10720 10715 10711 10706 10702 10698 10695 10692 10688 10684 10680 10676 10672 10668 10665 10662 10661 10658 10657 10655 10655 10655 10655 10655 10656 10657 10656 10654 10658 10662 10664 10667 10668 10670 10674 10675 10678 10681
10890 10888 10887 10886 10885 10884 10882 10879 10877 10875 10873 10871 10869 10867 10865 10862 10860 10857 10855 10852 10849 10846 10842 10839 10835 10832 10828 10824 10821 10817 10814 10810 10806 10802 10797 10793 10788 10783 10779 10774 10769 10764 10759 10753 10748 10742 10737 10732 10727 10722 10718 10713 10709 10705 10700 10696 10693 10689 10685 10681 10677 10673 10668 10665 10661 10658 10656 10654 10652 10650 10649 10649 10648 10648 10649 10650 10649 10648 10649 10653 10655 10656 10657 10659 10661 10662 10665 10668
10888 10886 10884 10883 10882 10881 10879 10877 10875 10873 10871 10869 10867 10865 10863 10861 10858 10855 10853 10850 10848 10844 10841 10837 10834 10830 10827 10823 10819 10816 10812 10808 10804 10800 10796 10791 10787 10782 10778 10773 10768 10763 10757 10752 10747 10741 10736 10730 10725 10720 10716 10711 10707 10703 10698 10694 10690 10686 10682 10678 10674 10670 10665 10661 10658 10654 10652 10649 10646 10645 10644 10644 10642 10641 10642 10643 10643 10642 10642 10645 10647 10647 10648 10649 10651 10652 10655 10658
10885 10883 10881 10880 10879 10878 10876 10874 10872 10870 10868 10866 10864 10862 10861 10859 10856 10853 10851 10848 10846 10843 10839 10836 10832 10829 10825 10822 10818 10814 10811 10807 10803 10799 10795 10790 10785 10781 10776 10771 10766 10761 10756 10751 10746 10740 10735 10729 10724 10719 10714 10709 10704 10700 10696 10692 10687 10683 10679 10674 10670 10667 10663 10658 10655 10651 10648 10646 10642 10639 10638 10638 10638 10635 10634 10636 10637 10636 10635 10636 10637 10639 10640 10640 10641 10643 10645 10648
10883 10881 10878 10877 10876 10875 10873 10871 10869 10867 10865 10863 10862 10860 10858 10856 10854 10851 10849 10846 10843 10840 10838 10834 10830 10827 10824 10820 10817 10813 10809 10806 10802 10798 10794 10789 10784 10779 10775 10770 10765 10760 10755 10750 10744 10739 10734 10728 10723 10717 10712 10707 10702 10698 10693 10689 10684 10680 10675 10671 10667 10663 10660 10655 10651 10648 10644 10642 10638 10634 10631 10632 10633 10630 10628 10628 10630 10630 10629 10628 10628 10630 10631 10631 10632 10632 10634 10637
10879 10878 10876 10873 10872 10871 10870 10868 10867 10865 10863 10861 10859 10857 10856 10854 10852 10849 10847 10844 10841 10838 10835 10832 10829 10825 10822 10819 10815 10811 10808 10804 10800 10796 10792 10788 10783 10778 10773 10768 10763 10759 10753 10748 10742 10737 10732 10726 10721 10715 10710 10704 10699 10694 10690 10686 10681 10676 10671 10668 10664 10660 10656 10652 10648 10644 10641 10638 10635 10630 10625 10625 10628 10625 10622 10623 10623 10623 10621 10620 10621 10621 10621 10622 10623 10623 10623 10625
10875 10875 10873 10870 10868 10868 10867 10866 10864 10862 10860 10858 10856 10854 10853 10851 10849 10847 10844 10841 10838 10836 10833 10830 10827 10823 10820 10817 10813 10810 10806 10803 10799 10795 10791 10786 10781 10776 10771 10766 10762 10757 10752 10747 10741 10736 10731 10725 10719 10713 10708 10703 10697 10692 10687 10683 10678 10673 10668 10664 10661 10658 10654 10649 10644 10640 10637 10634 10631 10626 10618 10616 10622 10621 10618 10618 10616 10615 10614 10612 10613 10613 10612 10613 10615 10615 10615 10615
10872 10871 10870 10868 10865 10864 10864 10863 10861 10860 10857 10855 10853 10852 10850 10848 10846 10844 10842 10839 10836 10833 10831 10828 10824 10821 10818 10815 10812 10808 10805 10801 10798 10793 10789 10785 10780 10775 10769 10764 10760 10755 10750 10745 10740 10734 10729 10724 10718 10712 10706 10701 10696 10691 10685 10681 10676 10671 10666 10660 10655 10652 10650 10646 10641 10636 10633 10630 10626 10623 10614 10607 10613 10617 10616 10615 10611 10608 10606 10603 10604 10604 10604 10604 10605 10606 10606 10606
10869 10868 10867 10865 10862 10860 10860 10860 10858 10857 10855 10852 10851 10849 10847 10845 10843 10841 10839 10837 10834 10831 10828 10825 10822 10819 10816 10813 10810 10807 10803 10800 10796 10792 10787 10783 10779 10774 10769 10764 10758 10754 10749 10744 10739 10734 10728 10723 10716 10710 10705 10699 10694 10689 10684 10679 10674 10668 10663 10658 10650 10644 10641 10639 10634 10629 10627 10626 10622 10620 10611 10601 10603 10609 10610 10608 10605 10601 10598 10595 10594 10594 10594 10594 10594 10595 10596 10596
10865 10864 10863 10862 10859 10856 10856 10856 10855 10854 10852 10850 10848 10846 10844 10842 10840 10839 10836 10834 10831 10828 10825 10822 10819 10816 10813 10810 10808 10805 10801 10798 10794 10790 10786 10781 10777 10772 10768 10763 10758 10753 10748 10743 10738 10733 10727 10721 10715 10709 10704 10698 10693 10688 10683 10677 10672 10666 10659 10654 10648 10641 10635 10632 10628 10622 10619 10619 10618 10615 10608 10599 10597 10599 10600 10599 10597 10594 10590 10587 10585 10585 10584 10584 10585 10586 10586 10586
10861 10860 10859 10858 10856 10853 10852 10853 10852 10850 10849 10847 10845 10843 10841 10839 10837 10836 10833 10831 10829 10826 10823 10820 10817 10814 10811 10808 10805 10803 10800 10796 10793 10789 10784 10780 10775 10770 10766 10762 10757 10752 10747 10742 10737 10732 10726 10720 10714 10708 10703 10698 10692 10687 10681 10675 10670 10665 10658 10652 10648 10642 10633 10627 10624 10618 10612 10611 10611 10610 10605 10598 10594 10592 10590 10589 10588 10586 10583 10579 10577 10575 10574 10574 10575 10576 10577 10577
10857 10856 10856 10855 10853 10850 10849 10849 10848 10847 10845 10843 10842 10839 10837 10836 10834 10832 10830 10828 10826 10823 10820 10817 10814 10811 10808 10805 10803 10800 10797 10794 10791 10787 10783 10778 10773 10769 10765 10760 10755 10751 10746 10740 10735 10730 10725 10719 10713 10707 10702 10697 10692 10686 10679 10673 10667 10661 10657 10651 10646 10643 10636 10626 10619 10614 10607 10604 10603 10602 10599 10595 10590 10585 10581 10580 10579 10577 10574 10571 10568 10566 10564 10564 10565 10566 10567 10567
10853 10852 10851 10850 10849 10846 10845 10845 10845 10844 10842 10840 10838 10836 10834 10832 10830 10829 10827 10825 10823 10821 10818 10814 10811 10808 10805 10802 10800 10797 10795 10792 10788 10785 10781 10776 10772 10768 10763 10759 10753 10748 10744 10738 10733 10729 10724 10718 10712 10707 10702 10696 10690 10685 10679 10672 10666 10660 10655 10650 10643 10639 10636 10628 10619 10611 10603 10599 10598 10595 10592 10590 10585 10580 10575 10572 10570 10567 10564 10562 10559 10556 10554 10553 10553 10554 10556 10557
10847 10847 10846 10846 10845 10842 10841 10841 10841 10840 10838 10837 10835 10833 10831 10829 10827 10826 10824 10822 10820 10818 10815 10812 10809 10806 10803 10800 10797 10795 10792 10790 10786 10782 10779 10774 10770 10766 10762 10757 10752 10747 10742 10737 10731 10727 10723 10717 10712 10707 10701 10695 10688 10682 10677 10671 10666 10660 10655 10651 10644 10634 10631 10628 10621 10613 10603 10595 10594 10591 10587 10585 10579 10574 10570 10565 10561 10558 10555 10552 10549 10546 10543 10541 10542 10543 10545 10547
10841 10842 10841 10841 10840 10838 10837 10837 10837 10836 10834 10833 10831 10829 10828 10826 10824 10823 10821 10819 10817 10814 10812 10809 10806 10803 10800 10797 10795 10792 10790 10787 10784 10780 10777 10773 10768 10764 10760 10756 10751 10745 10740 10735 10730 10725 10722 10717 10711 10706 10699 10693 10686 10679 10674 10668 10662 10656 10651 10647 10643 10634 10627 10624 10618 10612 10603 10593 10588 10585 10581 10579 10573 10566 10562 10557 10553 10550 10546 10542 10539 10536 10533 10531 10531 10532 10534 10536
10836 10836 10836 10836 10835 10834 10832 10832 10832 10831 10830 10829 10827 10826 10824 10822 10821 10820 10818 10816 10814 10811 10809 10806 10803 10800 10797 10794 10792 10790 10787 10785 10781 10778 10775 10771 10766 10762 10758 10754 10749 10744 10739 10734 10729 10724 10720 10716 10710 10703 10697 10690 10683 10676 10670 10665 10658 10652 10647 10641 10637 10632 10623 10619 10615 10608 10600 10590 10583 10578 10574 10573 10567 10559 10554 10549 10545 10540 10536 10531 10526 10524 10523 10522 10521 10521 10522 10525
10830 10830 10830 10830 10830 10829 10828 10827 10827 10827 10826 10825 10823 10822 10820 10819 10818 10817 10815 10813 10810 10808 10805 10803 10800 10797 10794 10791 10789 10787 10785 10782 10779 10775 10772 10769 10764 10760 10756 10752 10748 10743 10738 10732 10727 10722 10718 10714 10708 10701 10695 10688 10680 10673 10666 10661 10655 10649 10643 10637 10633 10630 10621 10612 10608 10603 10596 10586 10578 10570 10564 10563 10560 10551 10546 10542 10538 10534 10527 10521 10516 10513 10514 10513 10511 10511 10512 10514
10824 10824 10824 10824 10824 10824 10823 10822 10822 10822 10821 10820 10819 10818 10816 10816 10815 10813 10812 10810 10807 10803 10801 10800 10797 10794 10791 10788 10786 10784 10782 10779 10776 10772 10769 10766 10762 10758 10754 10750 10746 10741 10736 10730 10724 10720 10715 10711 10706 10699 10692 10686 10678 10671 10663 10657 10652 10646 10640 10634 10629 10626 10619 10609 10600 10594 10590 10583 10575 10565 10555 10553 10552 10544 10538 10534 10529 10526 10520 10512 10507 10504 10505 10504 10503 10502 10502 10504
10818 10818 10819 10818 10818 10819 10818 10817 10817 10817 10816 10815 10814 10813 10812 10812 10811 10810 10808 10807 10803 10799 10797 10796 10794 10791 10788 10785 10783 10781 10779 10777 10774 10770 10767 10763 10760 10756 10752 10748 10744 10740 10735 10729 10723 10718 10713 10709 10704 10698 10690 10684 10678 10670 10662 10653 10647 10642 10636 10630 10623 10618 10615 10608 10598 10588 10581 10577 10571 10562 10548 10541 10543 10536 10529 10526 10521 10518 10513 10505 10500 10497 10495 10495 10494 10493 10493 10493
10813 10813 10813 10812 10812 10813 10812 10812 10811 10811 10811 10810 10809 10808 10808 10808 10807 10806 10805 10804 10800 10794 10793 10793 10791 10788 10785 10783 10780 10777 10776 10774 10771 10768 10765 10761 10757 10753 10749 10745 10741 10737 10733 10728 10722 10716 10712 10707 10703 10697 10689 10683 10677 10669 10661 10652 10643 10637 10631 10625 10618 10612 10607 10603 10597 10587 10576 10569 10564 10559 10546 10533 10531 10528 10520 10516 10513 10510 10507 10500 10494 10490 10487 10485 10484 10485 10485 10484
10807 10807 10807 10806 10807 10807 10807 10807 10806 10806 10806 10806 10805 10804 10804 10804 10802 10801 10801 10801 10796 10788 10788 10790 10787 10784 10782 10779 10777 10774 10773 10771 10768 10765 10762 10759 10755 10750 10747 10743 10738 10735 10731 10726 10721 10714 10710 10706 10701 10696 10689 10682 10676 10668 10660 10652 10643 10635 10628 10621 10614 10607 10601 10596 10592 10585 10576 10567 10558 10554 10547 10532 10525 10521 10513 10508 10503 10501 10499 10494 10488 10484 10481 10479 10476 10476 10477 10477
10800 10801 10801 10801 10801 10801 10801 10800 10800 10801 10801 10800 10800 10800 10800 10799 10798 10797 10797 10799 10793 10782 10783 10786 10783 10780 10778 10776 10773 10771 10770 10767 10765 10762 10759 10756 10752 10748 10744 10740 10736 10732 10728 10724 10719 10713 10707 10704 10699 10694 10688 10681 10675 10668 10659 10651 10642 10634 10626 10619 10611 10603 10597 10591 10585 10580 10571 10564 10555 10547 10541 10530 10521 10516 10508 10502 10497 10493 10491 10488 10483 10478 10475 10473 10471 10469 10470 10470
10794 10794 10795 10795 10794 10794 10794 10793 10794 10796 10795 10795 10795 10795 10795 10794 10793 10792 10792 10796 10789 10777 10779 10782 10779 10777 10775 10772 10770 10768 10766 10764 10761 10759 10756 10753 10750 10745 10741 10737 10734 10730 10727 10723 10718 10711 10705 10702 10697 10692 10686 10680 10674 10667 10659 10650 10641 10633 10624 10616 10608 10600 10593 10585 10579 10574 10564 10556 10549 10542 10536 10526 10517 10513 10506 10498 10492 10487 10484 10481 10477 10473 10469 10467 10466 10464 10463 10463
10786 10787 10788 10788 10787 10787 10787 10787 10788 10790 10790 10790 10790 10790 10790 10789 10788 10787 10788 10791 10783 10773 10775 10776 10774 10773 10771 10768 10766 10764 10762 10760 10758 10755 10752 10750 10746 10743 10739 10735 10731 10728 10725 10721 10717 10711 10704 10699 10695 10690 10684 10679 10673 10666 10659 10650 10640 10631 10622 10613 10606 10597 10588 10580 10574 10567 10559 10551 10544 10539 10534 10525 10514 10508 10503 10495 10488 10482 10478 10475 10472 10468 10464 10461 10460 10459 10457 10457
10778 10780 10780 10780 10781 10781 10780 10780 10782 10784 10784 10784 10784 10785 10785 10784 10784 10783 10785 10785 10775 10770 10771 10770 10769 10769 10766 10764 10762 10760 10758 10756 10754 10751 10749 10747 10743 10740 10736 10732 10728 10725 10721 10718 10715 10711 10703 10697 10693 10688 10683 10678 10673 10666 10659 10649 10639 10630 10621 10611 10602 10593 10585 10576 10568 10563 10556 10549 10542 10535 10531 10524 10514 10505 10499 10492 10485 10478 10473 10469 10466 10463 10460 10457 10455 10454 10453 10451
10770 10771 10772 10772 10773 10774 10773 10774 10776 10777 10778 10778 10779 10779 10779 10780 10779 10780 10781 10775 10768 10768 10768 10765 10765 10764 10762 10760 10758 10756 10755 10752 10750 10748 10746 10744 10741 10737 10733 10729 10725 10721 10718 10715 10712 10709 10703 10696 10692 10688 10682 10676 10671 10665 10658 10649 10638 10630 10622 10613 10603 10593 10583 10573 10564 10560 10556 10549 10542 10534 10527 10521 10512 10503 10496 10489 10483 10476 10470 10465 10461 10458 10456 10454 10451 10449 10448 10447
10762 10763 10763 10763 10765 10766 10767 10768 10769 10770 10772 10772 10773 10774 10774 10775 10776 10777 10774 10765 10763 10766 10763 10760 10761 10760 10758 10756 10753 10752 10751 10749 10747 10744 10742 10740 10737 10735 10731 10727 10723 10718 10715 10712 10708 10706 10702 10696 10690 10686 10681 10674 10668 10662 10656 10648 10637 10627 10620 10613 10605 10594 10585 10576 10566 10559 10553 10546 10539 10531 10522 10515 10508 10500 10492 10486 10479 10474 10468 10463 10458 10453 10451 10449 10447 10445 10443 10441
10753 10755 10755 10755 10756 10758 10760 10762 10762 10763 10765 10766 10766 10769 10769 10771 10774 10772 10763 10756 10759 10761 10757 10756 10757 10755 10754 10752 10749 10748 10747 10745 10743 10740 10739 10737 10734 10732 10728 10725 10721 10717 10713 10708 10704 10701 10699 10694 10688 10684 10679 10673 10666 10658 10652 10645 10635 10625 10617 10610 10604 10598 10591 10583 10572 10558 10547 10539 10532 10527 10520 10511 10502 10494 10487 10481 10475 10470 10465 10460 10456 10451 10446 10443 10442 10440 10438 10437
10744 10746 10747 10747 10747 10750 10752 10754 10755 10756 10758 10759 10761 10763 10764 10769 10772 10763 10753 10750 10754 10755 10753 10752 10752 10751 10750 10747 10744 10743 10742 10741 10738 10736 10735 10732 10730 10728 10725 10722 10718 10715 10712 10707 10702 10697 10695 10691 10685 10681 10676 10671 10664 10657 10651 10645 10636 10625 10616 10609 10602 10597 10589 10581 10572 10559 10546 10535 10525 10520 10516 10509 10498 10490 10482 10476 10471 10465 10461 10457 10452 10448 10444 10440 10437 10435 10434 10432
10736 10737 10738 10739 10738 10741 10744 10745 10748 10749 10751 10753 10756 10758 10761 10766 10764 10753 10746 10746 10747 10748 10748 10748 10748 10746 10744 10742 10740 10738 10738 10737 10734 10732 10731 10728 10726 10724 10722 10719 10715 10712 10710 10706 10701 10695 10692 10690 10684 10678 10675 10670 10664 10658 10652 10646 10638 10626 10616 10607 10599 10591 10582 10574 10568 10559 10548 10536 10525 10515 10510 10504 10497 10487 10479 10472 10467 10462 10457 10452 10448 10443 10439 10437 10434 10431 10429 10427
10728 10728 10729 10730 10730 10732 10735 10737 10741 10742 10744 10747 10749 10754 10760 10760 10754 10746 10741 10740 10741 10742 10742 10743 10744 10742 10740 10738 10736 10733 10733 10732 10730 10728 10726 10724 10722 10720 10719 10716 10713 10710 10707 10704 10700 10694 10689 10687 10683 10677 10673 10670 10664 10657 10651 10645 10638 10628 10615 10606 10597 10589 10581 10572 10564 10558 10548 10539 10530 10519 10509 10500 10493 10486 10478 10472 10466 10460 10453 10447 10443 10439 10435 10433 10430 10428 10425 10423
10720 10719 10719 10721 10720 10722 10726 10729 10732 10734 10737 10740 10743 10751 10755 10750 10744 10740 10736 10734 10736 10736 10735 10737 10739 10737 10736 10734 10731 10729 10729 10728 10726 10724 10722 10719 10718 10716 10715 10713 10709 10707 10705 10701 10698 10693 10687 10684 10682 10676 10671 10668 10663 10656 10650 10644 10637 10628 10616 10605 10596 10588 10582 10575 10566 10558 10549 10538 10530 10523 10514 10504 10495 10488 10481 10474 10466 10459 10452 10446 10441 10436 10432 10430 10427 10425 10422 10420
10710 10710 10710 10711 10710 10713 10718 10720 10723 10727 10730 10733 10740 10748 10747 10741 10736 10733 10729 10729 10730 10731 10731 10731 10732 10732 10731 10729 10727 10725 10724 10723 10722 10720 10718 10715 10713 10712 10711 10709 10706 10704 10702 10698 10695 10691 10686 10681 10679 10675 10670 10666 10662 10655 10648 10642 10636 10627 10616 10605 10597 10588 10581 10575 10568 10560 10550 10539 10529 10522 10516 10508 10499 10491 10483 10475 10467 10459 10454 10448 10441 10435 10430 10427 10424 10422 10419 10417
10698 10700 10701 10700 10701 10705 10708 10710 10714 10719 10722 10728 10737 10741 10738 10733 10728 10724 10724 10725 10725 10725 10726 10725 10725 10726 10725 10724 10722 10720 10719 10718 10717 10715 10714 10711 10709 10709 10707 10705 10703 10700 10698 10695 10692 10688 10684 10679 10676 10672 10668 10664 10660 10654 10647 10640 10634 10627 10616 10605 10596 10588 10579 10572 10566 10559 10551 10542 10531 10522 10514 10508 10501 10493 10485 10476 10468 10461 10455 10449 10442 10435 10430 10425 10422 10419 10417 10414
10686 10690 10692 10690 10691 10696 10698 10700 10706 10710 10716 10726 10732 10731 10729 10725 10719 10716 10718 10719 10719 10720 10720 10719 10719 10720 10719 10718 10717 10715 10714 10713 10711 10710 10709 10706 10705 10704 10703 10701 10699 10697 10694 10692 10688 10685 10681 10677 10674 10670 10666 10661 10658 10653 10646 10640 10633 10626 10617 10605 10595 10587 10578 10570 10563 10556 10549 10541 10533 10524 10515 10507 10500 10493 10485 10476 10468 10461 10455 10448 10440 10434 10429 10425 10421 10418 10415 10413
10676 10679 10681 10679 10682 10686 10687 10689 10697 10704 10712 10720 10723 10723 10721 10715 10710 10709 10711 10712 10714 10714 10713 10712 10713 10714 10713 10712 10711 10710 10709 10708 10706 10705 10704 10702 10700 10700 10699 10697 10694 10693 10691 10688 10685 10682 10678 10674 10671 10668 10664 10660 10656 10652 10645 10639 10633 10626 10618 10607 10596 10587 10579 10570 10561 10555 10548 10540 10532 10524 10516 10508 10499 10491 10483 10476 10468 10461 10453 10446 10439 10434 10429 10425 10421 10418 10415 10412
10665 10667 10670 10671 10672 10675 10675 10679 10690 10699 10706 10713 10716 10715 10711 10706 10703 10702 10702 10704 10707 10707 10706 10706 10707 10707 10707 10707 10706 10705 10704 10703 10701 10700 10699 10697 10696 10696 10695 10693 10690 10689 10688 10685 10682 10679 10676 10672 10668 10665 10662 10658 10655 10651 10645 10638 10631 10626 10618 10608 10597 10588 10581 10572 10563 10555 10548 10540 10531 10523 10515 10508 10500 10491 10483 10476 10469 10460 10452 10445 10440 10434 10429 10425 10422 10418 10415 10412
10652 10655 10658 10659 10660 10663 10665 10672 10684 10692 10699 10706 10708 10704 10701 10699 10696 10695 10694 10696 10699 10700 10700 10700 10700 10700 10700 10700 10700 10698 10698 10698 10696 10694 10694 10693 10691 10691 10691 10689 10686 10685 10684 10681 10679 10676 10673 10670 10666 10661 10659 10656 10652 10648 10644 10638 10631 10624 10617 10609 10598 10588 10580 10573 10565 10557 10549 10540 10531 10523 10515 10507 10500 10492 10484 10476 10468 10460 10452 10447 10442 10436 10431 10427 10423 10419 10416 10413
10638 10642 10644 10643 10646 10651 10656 10666 10679 10687 10694 10698 10697 10693 10693 10692 10689 10688 10687 10688 10690 10693 10694 10694 10693 10693 10693 10693 10693 10692 10693 10693 10691 10688 10688 10688 10686 10685 10687 10685 10682 10681 10680 10678 10675 10673 10670 10668 10664 10659 10655 10653 10651 10646 10641 10636 10630 10622 10616 10608 10599 10589 10581 10574 10566 10558 10551 10542 10532 10524 10517 10509 10502 10494 10485 10477 10468 10461 10455 10451 10445 10440 10435 10431 10426 10422 10418 10415
10623 10625 10627 10628 10633 10639 10648 10662 10674 10680 10684 10687 10685 10684 10685 10684 10683 10682 10680 10678 10681 10685 10687 10687 10686 10686 10686 10687 10687 10686 10686 10687 10686 10684 10684 10683 10681 10681 10683 10681 10677 10676 10676 10674 10672 10669 10667 10665 10663 10658 10653 10650 10647 10643 10638 10634 10629 10622 10615 10608 10600 10591 10583 10576 10567 10559 10553 10545 10536 10527 10518 10510 10503 10496 10487 10478 10470 10464 10460 10456 10451 10445 10440 10435 10430 10425 10421 10418
10604 10608 10611 10616 10621 10628 10641 10656 10665 10669 10674 10676 10676 10676 10675 10675 10676 10675 10671 10669 10673 10678 10680 10679 10679 10679 10679 10680 10679 10679 10678 10680 10681 10680 10679 10677 10676 10677 10679 10676 10673 10672 10672 10670 10668 10666 10663 10661 10661 10657 10653 10649 10644 10639 10635 10630 10626 10621 10615 10608 10601 10592 10584 10578 10570 10562 10555 10548 10540 10530 10521 10513 10505 10499 10491 10483 10476 10470 10466 10462 10457 10451 10446 10440 10435 10429 10425 10421
10586 10589 10596 10604 10610 10618 10633 10645 10652 10657 10663 10665 10666 10667 10666 10666 10668 10665 10662 10664 10667 10669 10671 10671 10672 10672 10673 10672 10670 10670 10671 10673 10675 10675 10673 10671 10671 10673 10673 10671 10668 10668 10667 10666 10663 10662 10660 10657 10656 10654 10651 10648 10645 10639 10634 10628 10624 10620 10614 10608 10602 10594 10586 10579 10573 10565 10558 10551 10543 10534 10526 10519 10512 10505 10497 10490 10484 10478 10473 10468 10464 10458 10452 10446 10441 10435 10430 10425
10564 10573 10585 10594 10599 10607 10619 10631 10640 10647 10651 10651 10652 10655 10655 10656 10658 10657 10658 10659 10659 10658 10661 10664 10666 10666 10665 10662 10659 10662 10666 10667 10669 10669 10667 10667 10667 10667 10667 10666 10664 10663 10663 10661 10659 10659 10656 10653 10652 10651 10648 10646 10643 10638 10633 10628 10623 10618 10613 10608 10602 10595 10587 10580 10574 10567 10560 10553 10546 10538 10530 10523 10516 10510 10503 10496 10490 10485 10480 10475 10470 10465 10459 10452 10446 10441 10436 10431
10545 10560 10575 10580 10583 10592 10605 10618 10627 10631 10633 10635 10638 10643 10646 10648 10652 10654 10653 10650 10648 10649 10652 10657 10660 10657 10654 10650 10650 10656 10660 10661 10663 10662 10661 10662 10662 10661 10662 10661 10658 10659 10658 10656 10655 10655 10653 10649 10648 10647 10644 10643 10641 10636 10631 10627 10622 10617 10612 10607 10601 10595 10588 10581 10575 10569 10562 10555 10549 10542 10533 10526 10519 10512 10507 10501 10495 10490 10486 10482 10476 10471 10465 10458 10453 10447 10442 10437
10530 10545 10559 10563 10568 10580 10592 10602 10606 10610 10618 10623 10627 10635 10642 10644 10645 10646 10643 10639 10638 10639 10641 10648 10652 10646 10640 10639 10643 10651 10654 10653 10655 10655 10654 10657 10657 10656 10657 10655 10653 10654 10653 10651 10650 10650 10649 10646 10644 10643 10640 10638 10638 10634 10628 10624 10620 10616 10611 10606 10600 10595 10589 10581 10576 10571 10564 10557 10551 10544 10537 10529 10522 10516 10511 10505 10500 10495 10491 10487 10481 10476 10471 10466 10460 10454 10449 10444
10517 10530 10544 10548 10553 10563 10573 10579 10586 10596 10604 10609 10618 10630 10636 10636 10636 10635 10631 10628 10627 10627 10630 10640 10642 10631 10626 10632 10640 10646 10645 10643 10646 10648 10648 10652 10652 10650 10650 10649 10648 10649 10647 10646 10646 10645 10645 10643 10640 10639 10637 10634 10634 10632 10627 10622 10617 10614 10610 10605 10600 10595 10589 10582 10577 10572 10566 10560 10553 10547 10540 10533 10526 10519 10514 10509 10504 10499 10495 10491 10486 10482 10478 10473 10468 10463 10457 10451
10509 10517 10525 10531 10538 10548 10555 10561 10568 10576 10585 10597 10614 10625 10625 10625 10625 10620 10615 10614 10615 10619 10624 10628 10625 10617 10619 10630 10637 10636 10631 10632 10639 10642 10643 10646 10645 10643 10644 10643 10643 10644 10642 10641 10640 10639 10640 10639 10636 10635 10633 10630 10629 10629 10625 10619 10615 10611 10608 10603 10599 10595 10589 10583 10577 10572 10568 10562 10555 10549 10543 10536 10529 10523 10518 10514 10509 10504 10499 10496 10492 10488 10484 10481 10477 10472 10466 10460
10502 10505 10511 10519 10526 10532 10539 10548 10551 10557 10573 10593 10605 10608 10607 10610 10609 10604 10603 10607 10610 10612 10612 10610 10608 10609 10616 10624 10627 10622 10619 10625 10634 10636 10637 10639 10637 10636 10637 10637 10637 10638 10636 10635 10635 10633 10634 10634 10632 10631 10630 10626 10624 10624 10623 10617 10612 10609 10606 10601 10598 10593 10588 10583 10577 10572 10568 10564 10558 10552 10546 10540 10533 10527 10522 10518 10514 10509 10504 10500 10497 10493 10490 10487 10484 10480 10475 10470